H1 CPF 2 NER 2023 8 7 9 219 01 glonass137 H2 1705501 9137 42939 2023 8 7 0 0 0 2023 8 10 23 45 0 900 1 1 0 0 0 1 H9 10 0 60163 0.00000 0 -9550871.359 -11611151.613 -20594442.811 10 0 60163 900.00000 0 -9591876.351 -14056367.533 -18992633.401 10 0 60163 1800.00000 0 -9793818.583 -16272511.593 -17021642.517 10 0 60163 2700.00000 0 -10120143.559 -18207319.802 -14719873.581 10 0 60163 3600.00000 0 -10526179.015 -19818155.765 -12132137.484 10 0 60163 4500.00000 0 -10961182.029 -21073584.117 -9308774.999 10 0 60163 5400.00000 0 -11370653.687 -21954486.066 -6304673.112 10 0 60163 6300.00000 0 -11698822.823 -22454671.826 -3178194.755 10 0 60163 7200.00000 0 -11891193.407 -22580965.901 9956.880 10 0 60163 8100.00000 0 -11897047.637 -22352763.239 3197917.102 10 0 60163 9000.00000 0 -11671798.862 -21801076.418 6323858.472 10 0 60163 9900.00000 0 -11179094.979 -20967115.195 9327186.216 10 0 60163 10800.00000 0 -10392583.626 -19900459.155 12149707.246 10 0 60163 11700.00000 0 -9297264.779 -18656900.870 14736750.527 10 0 60163 12600.00000 0 -7890373.735 -17296050.442 17038217.620 10 0 60163 13500.00000 0 -6181757.067 -15878801.817 19009543.886 10 0 60163 14400.00000 0 -4193725.142 -14464766.646 20612552.667 10 0 60163 15300.00000 0 -1960386.446 -13109782.428 21816186.897 10 0 60163 16200.00000 0 473509.786 -11863598.306 22597104.916 10 0 60163 17100.00000 0 3054175.992 -10767834.317 22940129.770 10 0 60163 18000.00000 0 5720768.864 -9854298.495 22838543.768 10 0 60163 18900.00000 0 8407671.608 -9143731.394 22294222.794 10 0 60163 19800.00000 0 11046983.048 -8645030.036 21317607.537 10 0 60163 20700.00000 0 13571111.942 -8354983.522 19927511.573 10 0 60163 21600.00000 0 15915370.314 -8258531.493 18150769.080 10 0 60163 22500.00000 0 18020459.179 -8329534.908 16021727.782 10 0 60163 23400.00000 0 19834743.974 -8532027.335 13581595.655 10 0 60163 24300.00000 0 21316225.191 -8821894.636 10877652.754 10 0 60163 25200.00000 0 22434121.946 -9148912.816 7962342.305 10 0 60163 26100.00000 0 23170001.888 -9459058.297 4892257.880 10 0 60163 27000.00000 0 23518409.582 -9696992.977 1727045.866 10 0 60163 27900.00000 0 23486966.435 -9808618.548 -1471755.562 10 0 60163 28800.00000 0 23095937.452 -9743591.130 -4641917.961 10 0 60163 29700.00000 0 22377282.715 -9457688.538 -7721740.614 10 0 60163 30600.00000 0 21373233.491 -8914928.464 -10651260.368 10 0 60163 31500.00000 0 20134453.146 -8089346.196 -13373428.646 10 0 60163 32400.00000 0 18717860.858 -6966354.954 -15835231.665 10 0 60163 33300.00000 0 17184210.492 -5543629.574 -17988731.088 10 0 60163 34200.00000 0 15595527.367 -3831474.675 -19792004.040 10 0 60163 35100.00000 0 14012511.592 -1852660.371 -21209963.693 10 0 60163 36000.00000 0 12492017.778 358268.776 -22215044.215 10 0 60163 36900.00000 0 11084717.496 2756183.463 -22787736.723 10 0 60163 37800.00000 0 9833042.734 5287008.874 -22916966.092 10 0 60163 38700.00000 0 8769496.428 7889745.381 -22600301.636 10 0 60163 39600.00000 0 7915400.357 10498786.623 -21843998.048 10 0 60163 40500.00000 0 7280131.998 13046438.476 -20662866.335 10 0 60163 41400.00000 0 6860881.105 15465534.131 -19079977.697 10 0 60163 42300.00000 0 6642934.836 17692036.485 -17126206.652 10 0 60163 43200.00000 0 6600477.834 19667519.731 -14839622.662 10 0 60163 44100.00000 0 6697872.047 21341427.175 -12264742.514 10 0 60163 45000.00000 0 6891360.880 22673011.754 -9451658.395 10 0 60163 45900.00000 0 7131124.454 23632879.093 -6455058.975 10 0 60163 46800.00000 0 7363598.142 24204069.751 -3333162.912 10 0 60163 47700.00000 0 7533955.548 24382636.566 -146585.868 10 0 60163 48600.00000 0 7588650.440 24177694.318 3042836.658 10 0 60163 49500.00000 0 7477909.838 23610940.949 6173247.627 10 0 60163 50400.00000 0 7158072.790 22715671.682 9183964.551 10 0 60163 51300.00000 0 6593676.031 21535328.429 12016650.323 10 0 60163 52200.00000 0 5759198.599 20121646.042 14616436.464 10 0 60163 53100.00000 0 4640391.837 18532473.532 16932977.560 10 0 60163 54000.00000 0 3235138.647 16829361.499 18921417.269 10 0 60163 54900.00000 0 1553805.439 15075016.381 20543248.143 10 0 60163 55800.00000 0 -380928.750 13330727.272 21767049.565 10 0 60163 56700.00000 0 -2534759.950 11653871.869 22569090.492 10 0 60163 57600.00000 0 -4862936.548 10095604.559 22933786.131 10 0 60163 58500.00000 0 -7311878.814 8698822.019 22854000.216 10 0 60163 59400.00000 0 -9821175.183 7496490.165 22331187.235 10 0 60163 60300.00000 0 -12325874.240 6510401.425 21375371.651 10 0 60163 61200.00000 0 -14758978.969 5750413.613 20004963.914 10 0 60163 62100.00000 0 -17054041.239 5214201.938 18246415.911 10 0 60163 63000.00000 0 -19147749.913 4887534.442 16133721.316 10 0 60163 63900.00000 0 -20982405.669 4745059.501 13707769.225 10 0 60163 64800.00000 0 -22508179.815 4751572.601 11015562.308 10 0 60163 65700.00000 0 -23685062.746 4863709.348 8109313.466 10 0 60163 66600.00000 0 -24484420.152 5031993.549 5045437.701 10 0 60163 67500.00000 0 -24890091.137 5203153.820 1883458.271 10 0 60163 68400.00000 0 -24898981.357 5322610.421 -1315151.734 10 0 60163 69300.00000 0 -24521125.456 5337026.349 -4488169.479 10 0 60163 70200.00000 0 -23779215.494 5196813.603 -7573840.154 10 0 60163 71100.00000 0 -22707614.779 4858487.070 -10512087.796 10 0 60163 72000.00000 0 -21350898.462 4286764.765 -13245694.476 10 0 60163 72900.00000 0 -19761982.466 3456323.808 -15721423.841 10 0 60163 73800.00000 0 -17999919.909 2353136.156 -17891066.149 10 0 60163 74700.00000 0 -16127458.279 975326.026 -19712383.652 10 0 60163 75600.00000 0 -14208460.666 -666488.642 -21149937.408 10 0 60163 76500.00000 0 -12305299.916 -2549386.336 -22175779.191 10 0 60163 77400.00000 0 -10476335.488 -4638856.799 -22769995.005 10 0 60163 78300.00000 0 -8773578.909 -6890011.334 -22921089.884 10 0 60163 79200.00000 0 -7240645.481 -9249238.477 -22626206.850 10 0 60163 80100.00000 0 -5911077.447 -11656236.164 -21891176.232 10 0 60163 81000.00000 0 -4807107.960 -14046335.700 -20730394.914 10 0 60163 81900.00000 0 -3938916.301 -16353020.702 -19166538.339 10 0 60163 82800.00000 0 -3304404.072 -18510535.951 -17230111.330 10 0 60163 83700.00000 0 -2889499.994 -20456477.477 -14958846.926 10 0 60163 84600.00000 0 -2668978.656 -22134256.022 -12396965.288 10 0 60163 85500.00000 0 -2607756.987 -23495331.371 -9594307.496 10 0 60164 0.00000 0 -2662612.133 -24501124.685 -6605361.724 10 0 60164 900.00000 0 -2784246.846 -25124530.088 -3488199.466 10 0 60164 1800.00000 0 -2919613.889 -25350961.889 -303346.885 10 0 60164 2700.00000 0 -3014400.449 -25178896.396 2887391.814 10 0 60164 3600.00000 0 -3015566.894 -24619885.317 6022131.974 10 0 60164 4500.00000 0 -2873832.239 -23698041.806 9040105.287 10 0 60164 5400.00000 0 -2546001.230 -22449021.538 11882832.426 10 0 60164 6300.00000 0 -1997034.784 -20918542.197 14495249.180 10 0 60164 7200.00000 0 -1201776.529 -19160503.766 16826764.754 10 0 60164 8100.00000 0 -146262.689 -17234788.297 18832232.562 10 0 60164 9000.00000 0 1171440.012 -15204830.817 20472815.645 10 0 60164 9900.00000 0 2740904.133 -13135062.100 21716730.914 10 0 60164 10800.00000 0 4539533.683 -11088329.058 22539858.796 10 0 60164 11700.00000 0 6533271.911 -9123399.051 22926207.274 10 0 60164 12600.00000 0 8677796.689 -7292650.895 22868221.881 10 0 60164 13500.00000 0 10920155.468 -5640047.448 22366935.850 10 0 60164 14400.00000 0 13200773.644 -4199473.151 21431957.327 10 0 60164 15300.00000 0 15455754.570 -2993504.909 20081293.322 10 0 60164 16200.00000 0 17619377.237 -2032666.968 18341012.883 10 0 60164 17100.00000 0 19626689.018 -1315200.515 16244754.831 10 0 60164 18000.00000 0 21416086.413 -827357.549 13833088.307 10 0 60164 18900.00000 0 22931776.673 -544206.706 11152737.203 10 0 60164 19800.00000 0 24126017.498 -430917.277 8255682.368 10 0 60164 20700.00000 0 24961040.712 -444467.439 5198158.152 10 0 60164 21600.00000 0 25410578.545 -535704.562 2039562.265 10 0 60164 22500.00000 0 25460927.548 -651670.204 -1158699.994 10 0 60164 23400.00000 0 25111504.330 -738090.877 -4334414.326 10 0 60164 24300.00000 0 24374868.805 -741928.132 -7425774.863 10 0 60164 25200.00000 0 23276213.116 -613878.792 -10372595.871 10 0 60164 26100.00000 0 21852337.197 -310717.910 -13117493.018 10 0 60164 27000.00000 0 20150153.814 202616.327 -15607010.158 10 0 60164 27900.00000 0 18224785.994 951285.637 -17792668.706 10 0 60164 28800.00000 0 16137337.078 1949237.647 -19631918.367 10 0 60164 29700.00000 0 13952427.446 3198371.799 -21088970.158 10 0 60164 30600.00000 0 11735601.676 4688221.634 -22135495.281 10 0 60164 31500.00000 0 9550715.197 6396167.864 -22751176.165 10 0 60164 32400.00000 0 7457409.990 8288174.117 -22924099.237 10 0 60164 33300.00000 0 5508784.832 10320015.093 -22650982.105 10 0 60164 34200.00000 0 3749357.077 12438946.059 -21937231.219 10 0 60164 35100.00000 0 2213400.333 14585743.997 -20796829.398 10 0 60164 36000.00000 0 923726.355 16697035.197 -19252055.900 10 0 60164 36900.00000 0 -109039.393 18707811.943 -17333044.964 10 0 60164 37800.00000 0 -886659.967 20554033.171 -15077191.830 10 0 60164 38700.00000 0 -1422960.436 22175200.431 -12528418.183 10 0 60164 39600.00000 0 -1742988.372 23516801.547 -9736311.709 10 0 60164 40500.00000 0 -1881698.577 24532520.062 -6755156.857 10 0 60164 41400.00000 0 -1882219.286 25186118.382 -3642876.014 10 0 60164 42300.00000 0 -1793774.468 25452916.350 -459902.047 10 0 60164 43200.00000 0 -1669351.202 25320804.004 2731995.574 10 0 60164 44100.00000 0 -1563211.551 24790746.881 5870908.096 10 0 60164 45000.00000 0 -1528354.626 23876763.504 8895984.871 10 0 60164 45900.00000 0 -1614036.349 22605376.720 11748607.735 10 0 60164 46800.00000 0 -1863451.664 21014562.460 14373519.927 10 0 60164 47700.00000 0 -2311676.937 19152240.206 16719888.217 10 0 60164 48600.00000 0 -2983959.125 17074368.330 18742278.440 10 0 60164 49500.00000 0 -3894423.761 14842723.467 20401526.468 10 0 60164 50400.00000 0 -5045256.260 12522455.904 21665488.739 10 0 60164 51300.00000 0 -6426391.438 10179521.872 22509658.754 10 0 60164 52200.00000 0 -8015725.181 7878098.380 22917638.455 10 0 60164 53100.00000 0 -9779840.618 5678086.842 22881455.878 10 0 60164 54000.00000 0 -11675220.083 3632807.899 22401723.182 10 0 60164 54900.00000 0 -13649894.018 1786982.016 21487631.813 10 0 60164 55800.00000 0 -15645459.890 175078.784 20156784.362 10 0 60164 56700.00000 0 -17599388.695 -1179897.224 18434865.464 10 0 60164 57600.00000 0 -19447524.346 -2267134.042 16355156.943 10 0 60164 58500.00000 0 -21126672.790 -3088223.287 13957905.318 10 0 60164 59400.00000 0 -22577173.372 -3656845.883 11289552.601 10 0 60164 60300.00000 0 -23745345.104 -3997945.750 8401844.157 10 0 60164 61200.00000 0 -24585705.063 -4146426.233 5350830.038 10 0 60164 62100.00000 0 -25062865.169 -4145424.256 2195778.664 10 0 60164 63000.00000 0 -25153026.644 -4044235.350 -1001976.204 10 0 60164 63900.00000 0 -24845008.102 -3895977.746 -4180232.451 10 0 60164 64800.00000 0 -24140762.736 -3755095.183 -7277136.647 10 0 60164 65700.00000 0 -23055361.690 -3674805.247 -10232396.575 10 0 60164 66600.00000 0 -21616443.335 -3704602.611 -12988464.525 10 0 60164 67500.00000 0 -19863150.951 -3887924.385 -15491667.251 10 0 60164 68400.00000 0 -17844603.119 -4260077.906 -17693259.632 10 0 60164 69300.00000 0 -15617960.992 -4846520.141 -19550380.658 10 0 60164 70200.00000 0 -13246173.686 -5661562.745 -21026892.601 10 0 60164 71100.00000 0 -10795496.542 -6707558.663 -22094086.787 10 0 60164 72000.00000 0 -8332886.413 -7974605.536 -22731242.165 10 0 60164 72900.00000 0 -5923383.071 -9440779.161 -22926026.048 10 0 60164 73800.00000 0 -3627586.071 -11072887.752 -22674729.581 10 0 60164 74700.00000 0 -1499332.118 -12827715.655 -21982333.804 10 0 60164 75600.00000 0 416330.796 -14653704.527 -20862405.546 10 0 60164 76500.00000 0 2084788.960 -16493001.557 -19336825.654 10 0 60164 77400.00000 0 3483060.830 -18283788.855 -17435355.313 10 0 60164 78300.00000 0 4600498.881 -19962796.329 -15195049.348 10 0 60164 79200.00000 0 5438967.984 -21467892.743 -12659528.256 10 0 60164 80100.00000 0 6012494.880 -22740646.333 -9878123.581 10 0 60164 81000.00000 0 6346405.579 -23728747.735 -6904913.589 10 0 60164 81900.00000 0 6475988.983 -24388193.842 -3797668.348 10 0 60164 82800.00000 0 6444744.821 -24685141.295 -616725.119 10 0 60164 83700.00000 0 6302291.291 -24597352.307 2576183.819 10 0 60164 84600.00000 0 6102021.931 -24115172.694 5719127.913 10 0 60164 85500.00000 0 5898611.455 -23242001.656 8751176.320 10 0 60165 0.00000 0 5745476.373 -21994234.265 11613573.742 10 0 60165 900.00000 0 5692297.672 -20400678.741 14250873.152 10 0 60165 1800.00000 0 5782710.213 -18501474.850 16612000.167 10 0 60165 2700.00000 0 6052255.765 -16346556.347 18651234.348 10 0 60165 3600.00000 0 6526685.874 -13993722.849 20329085.457 10 0 60165 4500.00000 0 7220685.783 -11506400.206 21613050.234 10 0 60165 5400.00000 0 8137073.170 -8951181.718 22478235.766 10 0 60165 6300.00000 0 9266505.790 -6395251.166 22907838.187 10 0 60165 7200.00000 0 10587711.117 -3903793.347 22893468.023 10 0 60165 8100.00000 0 12068229.584 -1537498.202 22435316.110 10 0 60165 9000.00000 0 13665641.816 649739.275 21542156.746 10 0 60165 9900.00000 0 15329230.244 2612829.016 20231187.472 10 0 60165 10800.00000 0 17002007.323 4317123.242 18527707.706 10 0 60165 11700.00000 0 18623027.189 5739613.837 16464641.305 10 0 60165 12600.00000 0 20129885.308 6869640.317 14081911.009 10 0 60165 13500.00000 0 21461302.409 7709079.089 11425675.604 10 0 60165 14400.00000 0 22559684.813 8272006.263 8547443.391 10 0 60165 15300.00000 0 23373553.626 8583848.171 5503078.314 10 0 60165 16200.00000 0 23859740.195 8680055.473 2351717.453 10 0 60165 17100.00000 0 23985254.490 8604356.908 -845379.225 10 0 60165 18000.00000 0 23728746.534 8406666.864 -4026024.211 10 0 60165 18900.00000 0 23081497.873 8140735.861 -7128319.030 10 0 60165 19800.00000 0 22047899.923 7861644.287 -10091867.512 10 0 60165 20700.00000 0 20645397.729 7623246.631 -12858961.038 10 0 60165 21600.00000 0 18903900.435 7475675.718 -15375711.636 10 0 60165 22500.00000 0 16864682.455 7463013.959 -17593109.871 10 0 60165 23400.00000 0 14578821.031 7621231.502 -19467986.099 10 0 60165 24300.00000 0 12105235.520 7976479.688 -20963855.785 10 0 60165 25200.00000 0 9508410.521 8543812.950 -22051632.192 10 0 60165 26100.00000 0 6855898.218 9326393.967 -22710192.449 10 0 60165 27000.00000 0 4215704.402 10315216.157 -22926786.240 10 0 60165 27900.00000 0 1653667.250 11489355.637 -22697279.489 10 0 60165 28800.00000 0 -769062.008 12816742.211 -22026228.766 10 0 60165 29700.00000 0 -2998332.010 14255417.031 -20926785.471 10 0 60165 30600.00000 0 -4989002.163 15755224.008 -19420432.162 10 0 60165 31500.00000 0 -6706568.833 17259863.755 -17536556.634 10 0 60165 32400.00000 0 -8128340.434 18709223.625 -15311872.457 10 0 60165 33300.00000 0 -9244114.121 20041885.801 -12789697.641 10 0 60165 34200.00000 0 -10056327.716 21197707.940 -10019105.845 10 0 60165 35100.00000 0 -10579682.648 22120367.887 -7053967.006 10 0 60165 36000.00000 0 -10840255.795 22759765.566 -3951896.384 10 0 60165 36900.00000 0 -10874139.563 23074181.211 -773132.845 10 0 60165 37800.00000 0 -10725669.216 23032099.510 2420631.535 10 0 60165 38700.00000 0 -10445313.606 22613623.294 5567447.588 10 0 60165 39600.00000 0 -10087319.364 21811417.781 8606307.566 10 0 60165 40500.00000 0 -9707208.616 20631146.057 11478322.861 10 0 60165 41400.00000 0 -9359236.130 19091377.787 14127858.450 10 0 60165 42300.00000 0 -9093913.115 17222975.024 16503602.541 10 0 60165 43200.00000 0 -8955701.796 15067980.639 18559551.489 10 0 60165 44100.00000 0 -8980977.486 12678055.306 20255891.796 10 0 60165 45000.00000 0 -9196343.510 10112527.437 21559763.089 10 0 60165 45900.00000 0 -9617369.582 7436136.175 22445888.283 10 0 60165 46800.00000 0 -10247806.615 4716559.932 22897059.552 10 0 60165 47700.00000 0 -11079311.268 2021831.655 22904471.293 10 0 60165 48600.00000 0 -12091692.472 -582253.498 22467893.881 10 0 60165 49500.00000 0 -13253670.707 -3034632.046 21595684.749 10 0 60165 50400.00000 0 -14524119.551 -5281265.525 20304636.063 10 0 60165 51300.00000 0 -15853739.018 -7277139.218 18619661.080 10 0 60165 52200.00000 0 -17187092.084 -8987884.120 16573324.128 10 0 60165 53100.00000 0 -18464920.384 -10390955.183 14205222.047 10 0 60165 54000.00000 0 -19626642.975 -11476317.077 11561227.760 10 0 60165 54900.00000 0 -20612933.872 -12246608.970 8692609.461 10 0 60165 55800.00000 0 -21368270.120 -12716781.452 5655041.618 10 0 60165 56700.00000 0 -21843342.808 -12913220.905 2507526.388 10 0 60165 57600.00000 0 -21997228.652 -12872398.281 -688753.762 10 0 60165 58500.00000 0 -21799229.358 -12639099.529 -3871629.675 10 0 60165 59400.00000 0 -21230299.769 -12264312.897 -6979161.544 10 0 60165 60300.00000 0 -20284002.949 -11802863.164 -9950852.863 10 0 60165 61200.00000 0 -18966950.410 -11310893.830 -12728837.561 10 0 60165 62100.00000 0 -17298707.502 -10843304.937 -15259016.146 10 0 60165 63000.00000 0 -15311166.791 -10451256.143 -17492117.759 10 0 60165 63900.00000 0 -13047414.877 -10179841.895 -19384666.582 10 0 60165 64800.00000 0 -10560139.638 -10066038.046 -20899833.226 10 0 60165 65700.00000 0 -7909644.286 -10137007.616 -22008154.246 10 0 60165 66600.00000 0 -5161551.183 -10408837.898 -22688105.677 10 0 60165 67500.00000 0 -2384291.307 -10885762.601 -22926519.665 10 0 60165 68400.00000 0 353515.976 -11559902.041 -22718836.403 10 0 60165 69300.00000 0 2985683.756 -12411532.283 -22069186.938 10 0 60165 70200.00000 0 5450970.192 -13409871.722 -20990305.731 10 0 60165 71100.00000 0 7695378.890 -14514351.697 -19503275.161 10 0 60165 72000.00000 0 9674152.077 -15676317.283 -17637107.420 10 0 60165 72900.00000 0 11353374.706 -16841086.299 -15428172.361 10 0 60165 73800.00000 0 12711124.109 -17950279.511 -12919482.816 10 0 60165 74700.00000 0 13738118.886 -18944323.608 -10159851.686 10 0 60165 75600.00000 0 14437841.880 -19765021.355 -7202937.564 10 0 60165 76500.00000 0 14826134.085 -20358080.544 -4106197.792 10 0 60165 77400.00000 0 14930278.579 -20675495.242 -929769.706 10 0 60165 78300.00000 0 14787614.828 -20677679.122 2264697.915 10 0 60165 79200.00000 0 14443743.334 -20335261.254 5415240.267 10 0 60165 80100.00000 0 13950397.506 -19630469.010 8460775.463 10 0 60165 81000.00000 0 13363073.368 -18558040.133 11342283.850 10 0 60165 81900.00000 0 12738517.477 -17125625.772 14003945.110 10 0 60165 82800.00000 0 12132179.040 -15353667.556 16394211.615 10 0 60165 83700.00000 0 11595733.302 -13274753.562 18466797.967 10 0 60165 84600.00000 0 11174779.994 -10932479.531 20181568.477 10 0 60165 85500.00000 0 10906813.088 -8379862.021 21505306.349 10 0 60166 0.00000 0 10819546.583 -5677368.658 22412350.587 10 0 60166 900.00000 0 10929666.242 -2890644.539 22885089.552 10 0 60166 1800.00000 0 11242059.554 -88031.273 22914301.076 10 0 60166 2700.00000 0 11749556.262 2662024.854 22499334.462 10 0 60166 3600.00000 0 12433191.051 5293566.196 21648129.438 10 0 60166 4500.00000 0 13262978.179 7745613.876 20377071.749 10 0 60166 5400.00000 0 14199166.724 9964452.468 18710687.281 10 0 60166 6300.00000 0 15193925.061 11905615.355 16681179.482 10 0 60166 7200.00000 0 16193385.070 13535488.859 14327817.800 10 0 60166 8100.00000 0 17139961.277 14832468.687 11696187.667 10 0 60166 9000.00000 0 17974848.082 15787620.607 8837315.411 10 0 60166 9900.00000 0 18640590.278 16404817.631 5806684.113 10 0 60166 10800.00000 0 19083618.340 16700347.934 2663158.972 10 0 60166 11700.00000 0 19256640.884 16702009.933 -532157.193 10 0 60166 12600.00000 0 19120792.243 16447732.710 -3717115.792 10 0 60166 13500.00000 0 18647443.051 15983780.292 -6829737.919 10 0 60166 14400.00000 0 17819595.767 15362616.117 -9809428.921 10 0 60166 15300.00000 0 16632804.517 14640518.700 -12598167.373 10 0 60166 16200.00000 0 15095578.830 13875050.235 -15141644.247 10 0 60166 17100.00000 0 13229252.762 13122486.222 -17390329.112 10 0 60166 18000.00000 0 11067323.676 12435315.817 -19300441.707 10 0 60166 18900.00000 0 8654287.531 11859919.511 -20834809.426 10 0 60166 19800.00000 0 6044018.787 11434523.007 -21963593.666 10 0 60166 20700.00000 0 3297762.362 11187514.179 -22664870.838 10 0 60166 21600.00000 0 481821.297 11136194.410 -22925056.895 10 0 60166 22500.00000 0 -2334963.573 11286016.913 -22739167.473 10 0 60166 23400.00000 0 -5083836.993 11630343.884 -22110909.020 10 0 60166 24300.00000 0 -7698746.730 12150732.266 -21052599.656 10 0 60166 25200.00000 0 -10118846.532 12817735.483 -19584921.784 10 0 60166 26100.00000 0 -12290781.022 13592186.682 -17736511.768 10 0 60166 27000.00000 0 -14170658.293 14426908.755 -15543395.089 10 0 60166 27900.00000 0 -15725629.173 15268778.406 -13048278.335 10 0 60166 28800.00000 0 -16935008.718 16061056.679 -10299712.218 10 0 60166 29700.00000 0 -17790894.763 16745887.198 -7351142.229 10 0 60166 30600.00000 0 -18298259.480 17266856.426 -4259865.757 10 0 60166 31500.00000 0 -18474512.017 17571507.698 -1085916.323 10 0 60166 32400.00000 0 -18348552.413 17613702.941 2109103.093 10 0 60166 33300.00000 0 -17959358.237 17355732.494 5263214.745 10 0 60166 34200.00000 0 -17354164.827 16770084.199 8315265.493 10 0 60166 35100.00000 0 -16586316.772 15840797.389 11206107.650 10 0 60166 36000.00000 0 -15712881.757 14564344.839 13879738.722 10 0 60166 36900.00000 0 -14792127.457 12950005.555 16284378.380 10 0 60166 37800.00000 0 -13880967.511 11019712.448 18373462.573 10 0 60166 38700.00000 0 -13032483.492 8807380.673 20106536.398 10 0 60166 39600.00000 0 -12293626.347 6357743.820 21450029.397 10 0 60166 40500.00000 0 -11703193.011 3724745.270 22377899.259 10 0 60166 41400.00000 0 -11290162.368 969550.185 22872132.314 10 0 60166 42300.00000 0 -11072459.745 -1841740.864 22923091.718 10 0 60166 43200.00000 0 -11056201.433 -4640583.522 22529706.913 10 0 60166 44100.00000 0 -11235450.898 -7358584.922 21699500.598 10 0 60166 45000.00000 0 -11592497.272 -9930096.568 20448452.240 10 0 60166 45900.00000 0 -12098645.109 -12294698.678 18800699.924 10 0 60166 46800.00000 0 -12715483.136 -14399473.977 16788085.230 10 0 60166 47700.00000 0 -13396579.711 -16200977.114 14449548.700 10 0 60166 48600.00000 0 -14089534.598 -17666818.182 11830386.283 10 0 60166 49500.00000 0 -14738301.426 -18776794.374 8981380.018 10 0 60166 50400.00000 0 -15285683.361 -19523522.381 5957818.840 10 0 60166 51300.00000 0 -15675896.656 -19912544.808 2818427.948 10 0 60166 52200.00000 0 -15857093.380 -19961905.923 -375772.737 10 0 60166 53100.00000 0 -15783735.781 -19701214.442 -3562658.598 10 0 60166 54000.00000 0 -15418720.615 -19170232.860 -6680215.133 10 0 60166 54900.00000 0 -14735162.065 -18417053.121 -9667753.096 10 0 60166 55800.00000 0 -13717756.143 -17495936.124 -12467099.248 10 0 60166 56700.00000 0 -12363667.210 -16464907.062 -15023738.473 10 0 60166 57600.00000 0 -10682897.524 -15383208.994 -17287884.017 10 0 60166 58500.00000 0 -8698122.751 -14308723.142 -19215454.138 10 0 60166 59400.00000 0 -6443999.126 -13295465.639 -20768935.560 10 0 60166 60300.00000 0 -3965970.323 -12391267.070 -21918116.577 10 0 60166 61200.00000 0 -1318623.367 -11635733.101 -22640675.458 10 0 60166 62100.00000 0 1436338.168 -11058572.321 -22922612.859 10 0 60166 63000.00000 0 4232419.356 -10678361.569 -22758520.172 10 0 60166 63900.00000 0 7000860.744 -10501800.329 -22151679.013 10 0 60166 64800.00000 0 9673261.760 -10523484.848 -21113990.428 10 0 60166 65700.00000 0 12184191.753 -10726210.636 -19665735.676 10 0 60166 66600.00000 0 14473680.370 -11081789.584 -17835173.720 10 0 60166 67500.00000 0 16489484.193 -11552346.221 -15657983.700 10 0 60166 68400.00000 0 18189036.066 -12092037.473 -13176563.624 10 0 60166 69300.00000 0 19540996.916 -12649122.448 -10439199.302 10 0 60166 70200.00000 0 20526346.618 -13168294.105 -7499120.084 10 0 60166 71100.00000 0 21138969.881 -13593173.762 -4413460.084 10 0 60166 72000.00000 0 21385714.276 -13868862.634 -1242145.489 10 0 60166 72900.00000 0 21285919.692 -13944442.379 1953270.128 10 0 60166 73800.00000 0 20870440.618 -13775318.926 5110799.648 10 0 60166 74700.00000 0 20180203.746 -13325310.675 8169222.073 10 0 60166 75600.00000 0 19264362.685 -12568393.015 11069264.816 10 0 60166 76500.00000 0 18178128.153 -11490025.695 13754745.957 10 0 60166 77400.00000 0 16980365.231 -10088007.108 16173654.806 10 0 60166 78300.00000 0 15731058.639 -8372819.320 18279150.541 10 0 60166 79200.00000 0 14488752.026 -6367448.814 20030460.460 10 0 60166 80100.00000 0 13308068.077 -4106689.602 21393661.416 10 0 60166 81000.00000 0 12237412.506 -1635956.615 22342330.265 10 0 60166 81900.00000 0 11316957.172 990342.664 22858051.602 10 0 60166 82800.00000 0 10576985.904 3710812.250 22930773.561 10 0 60166 83700.00000 0 10036671.537 6459365.963 22559005.124 10 0 60166 84600.00000 0 9703334.911 9167726.456 21749851.053 10 0 60166 85500.00000 0 9572216.722 11768022.971 20518883.335 99